Theta_e
313 313 313 313 312 312 312 312 312 313 313 314 315 317 317 318 317 316 318 324 324 322 322 323 325 328 327 326 327 327 327 328 330 332 334 334 335 336 337 338 339 339 341 342 341 339 340 340 341 340 339 338 338 337 337 338 338 338 338 337 337 336 335 334 333 332 332 332 333 333 332 331 330 329 328 327 325 324 320 317 315 313 310 309 308 308 308
313 313 314 314 313 312 312 312 313 313 313 314 315 316 316 317 318 318 321 326 326 324 326 328 329 330 329 326 326 326 325 326 326 329 333 334 334 335 336 339 340 339 340 341 340 339 339 340 340 340 339 338 338 337 337 338 338 338 338 337 336 336 335 334 333 332 332 333 333 332 331 330 329 329 327 325 323 321 318 316 315 312 309 309 308 308 307
315 314 314 314 313 313 313 313 313 313 313 314 315 316 317 317 318 319 322 324 323 323 328 330 329 329 329 327 326 326 325 326 326 327 329 329 331 332 333 336 339 341 342 342 340 339 340 340 340 339 338 338 338 337 337 338 338 338 337 337 336 335 334 333 333 332 332 333 333 332 330 329 328 328 326 323 322 319 317 316 315 311 309 309 308 306 305
315 315 315 314 314 314 313 313 314 313 314 315 316 317 318 318 318 320 321 320 319 322 326 328 326 327 329 328 326 325 325 325 325 327 327 328 329 331 332 334 338 340 341 341 341 340 340 340 340 339 338 338 338 337 337 337 337 337 337 336 336 335 333 332 333 333 332 332 333 331 330 329 328 327 324 321 319 318 317 317 315 312 310 308 306 303 303
316 317 317 316 316 315 314 314 314 314 314 315 316 316 318 319 319 319 319 318 320 323 326 326 324 324 326 327 325 324 324 324 325 325 327 328 329 329 330 333 338 340 340 340 340 340 340 340 339 338 338 338 337 337 336 336 337 337 336 336 335 334 333 332 332 331 331 332 332 330 329 329 328 326 323 320 318 318 319 318 316 314 310 306 304 302 303
316 319 318 317 318 317 316 315 315 315 315 316 316 317 317 318 318 318 318 319 322 324 324 324 324 324 324 324 323 322 322 324 326 326 327 328 329 330 330 332 335 337 338 339 340 340 340 339 339 338 337 337 337 336 336 336 337 336 335 335 334 333 331 330 330 330 331 332 330 329 329 329 327 325 323 321 320 319 320 320 317 314 309 304 302 302 303
316 318 319 318 319 319 317 317 317 316 315 316 317 318 318 318 318 318 319 319 321 322 321 322 323 322 321 321 320 320 321 324 326 328 327 327 328 330 331 333 334 334 335 338 340 340 340 339 338 337 337 337 336 336 336 336 336 336 335 334 333 332 330 330 330 331 331 330 330 329 328 329 327 325 323 322 321 320 320 319 317 314 309 303 301 301 303
317 318 319 319 320 319 319 320 319 318 317 316 318 318 318 319 319 319 319 318 319 321 320 320 320 319 320 319 319 320 322 324 326 326 326 326 326 327 331 333 334 335 336 338 340 340 339 338 337 337 336 336 336 335 335 335 335 335 334 333 332 331 331 330 331 331 330 330 329 329 329 328 328 325 324 323 322 321 319 318 316 314 308 302 300 300 302
318 318 319 320 320 320 320 320 320 320 318 317 319 318 318 320 319 318 318 318 319 320 319 319 319 319 319 320 319 321 322 323 324 325 326 326 324 327 331 334 333 334 337 339 339 339 339 338 337 337 336 336 335 335 335 335 334 334 333 332 331 330 330 331 331 331 330 330 330 330 329 328 327 326 325 324 323 322 319 316 315 313 307 301 299 301 301
317 318 319 320 320 319 321 322 323 324 322 321 322 319 318 319 319 318 319 319 319 320 320 319 319 319 321 320 319 321 323 324 323 323 324 325 324 329 334 334 334 335 338 340 339 338 338 337 337 336 335 335 335 334 334 334 333 333 332 332 331 330 329 330 330 329 329 329 329 328 328 328 327 326 325 324 324 322 319 316 315 312 307 302 300 301 299
317 318 319 320 320 320 321 323 324 323 322 322 322 318 316 319 319 318 318 319 320 321 320 320 321 321 320 318 320 325 326 325 323 321 323 324 325 332 337 336 335 338 340 340 339 338 337 336 336 336 335 335 334 333 333 333 332 331 331 331 331 330 329 329 328 326 325 325 326 327 327 328 327 326 326 325 324 322 319 316 314 312 308 304 301 299 296
317 318 318 320 319 319 321 322 323 322 321 322 321 317 318 323 325 322 319 319 320 321 320 320 321 321 318 319 326 331 329 326 325 322 324 325 327 334 338 337 337 340 340 339 338 337 336 336 336 335 334 334 333 332 331 331 331 331 331 331 331 329 328 327 326 324 324 325 327 328 328 328 327 326 327 325 324 321 318 315 312 310 306 302 300 298 297
317 317 318 319 319 318 320 322 323 323 322 320 319 319 323 328 329 326 324 323 320 319 320 321 320 321 322 323 327 329 330 331 330 325 325 327 328 333 338 337 337 339 339 338 338 337 336 335 335 334 334 333 332 331 331 330 330 331 331 331 330 329 328 326 325 324 326 327 328 328 328 328 327 326 326 325 323 320 317 313 310 306 303 301 301 301 300
316 317 318 319 319 319 320 322 323 324 322 320 321 324 327 328 328 326 326 327 326 322 320 318 320 326 331 330 327 327 330 335 334 331 330 331 331 335 338 337 337 339 339 338 337 336 336 335 334 334 333 332 332 331 331 330 330 330 331 330 329 328 327 325 323 325 327 328 328 327 327 327 326 326 325 323 321 318 315 311 307 304 302 302 303 303 302
317 317 318 319 320 320 322 322 323 323 324 324 326 328 328 327 327 326 326 327 329 328 322 318 324 332 335 334 333 331 333 336 335 334 335 334 335 336 337 337 337 338 337 337 336 336 335 334 334 333 332 332 331 331 331 330 330 330 330 330 329 328 326 324 324 326 328 328 327 327 327 327 326 325 324 322 319 316 313 309 306 304 302 302 303 303 302
317 317 318 319 319 321 323 323 323 324 325 326 328 328 327 326 327 327 325 325 329 330 324 319 328 334 335 335 335 334 334 336 336 336 336 336 336 337 336 337 337 337 336 335 335 335 335 334 333 333 332 332 332 331 331 331 330 330 330 329 328 326 324 322 325 327 328 327 327 327 327 326 325 324 323 321 318 314 311 309 307 305 303 303 304 302 302
318 319 319 319 319 322 324 324 324 325 325 325 326 326 326 328 328 329 328 328 330 331 326 323 329 332 331 333 335 334 334 336 336 337 338 337 337 337 336 336 337 337 336 335 334 334 334 333 333 333 332 332 332 331 330 331 331 330 329 328 326 324 323 323 326 327 328 328 328 327 327 326 324 323 322 320 316 314 311 310 308 306 306 307 304 302 302
319 319 319 318 322 324 324 324 325 326 325 324 324 324 326 327 328 329 330 331 332 332 329 328 329 329 328 332 334 334 334 335 336 337 337 336 336 337 336 336 336 336 335 334 334 334 333 333 332 332 332 332 332 331 330 330 330 330 329 328 326 324 324 325 326 327 328 328 327 326 325 324 323 323 321 319 316 314 312 310 308 308 307 304 302 302 303
318 320 320 320 323 324 324 324 324 324 324 324 324 324 324 324 325 327 329 331 332 332 330 329 328 327 329 333 335 335 334 334 335 336 335 335 336 336 336 336 335 335 335 334 333 333 333 332 332 331 332 332 332 331 330 330 329 329 328 327 326 324 323 324 326 327 328 328 327 326 324 323 322 320 319 318 317 315 312 311 309 307 305 302 301 303 303
317 320 321 323 323 324 325 324 323 323 325 325 324 324 323 323 324 325 327 330 331 332 332 331 331 331 332 333 334 334 334 333 334 334 333 333 334 335 335 335 335 335 335 334 334 333 332 332 332 331 331 332 331 331 330 329 329 328 327 327 326 324 324 325 327 328 328 328 327 325 323 322 321 320 319 318 317 315 313 312 309 306 304 302 301 301 301
318 320 322 322 322 322 323 323 323 324 324 324 323 324 323 323 323 324 324 325 328 330 331 332 332 332 332 333 332 332 333 333 333 332 332 331 332 335 335 334 334 335 335 334 334 333 332 332 331 331 331 331 330 330 330 329 328 327 327 326 325 325 325 326 327 327 327 327 326 325 323 322 321 320 319 318 316 315 313 311 310 307 306 304 301 299 299
320 321 322 322 321 320 322 323 323 323 323 322 322 324 324 323 324 324 323 322 323 325 328 331 332 331 331 332 332 331 333 333 332 331 331 330 332 334 334 334 334 334 334 334 334 333 332 331 331 330 330 330 329 329 328 328 327 327 326 325 324 324 325 326 327 327 327 327 326 324 323 322 320 318 317 315 314 313 311 310 309 307 307 305 302 298 298
320 320 321 322 321 321 322 323 323 323 323 323 324 324 324 324 324 324 324 324 323 323 324 327 331 332 332 332 333 333 333 333 331 331 331 331 332 333 334 333 333 333 333 333 333 333 332 331 330 330 330 329 329 329 328 327 327 326 325 325 325 324 324 326 327 327 326 326 325 323 321 321 320 318 315 313 311 311 310 310 309 308 307 305 301 297 297
320 320 321 322 322 322 322 323 323 324 324 325 325 324 323 323 323 324 325 324 324 324 324 325 327 330 332 333 333 333 333 333 332 332 332 333 333 334 334 333 332 332 333 333 333 332 331 330 330 329 329 329 329 328 328 328 327 326 325 325 325 324 324 325 327 327 325 324 324 322 321 319 317 316 314 313 311 309 309 309 308 308 307 304 300 297 296
321 321 322 322 323 323 323 323 323 323 323 324 324 323 322 322 322 323 324 323 323 324 325 325 326 327 330 332 333 333 332 332 332 332 332 333 334 333 333 333 333 332 333 333 333 332 331 330 329 329 329 329 328 328 328 327 327 326 325 325 323 322 322 324 325 325 324 323 323 322 321 319 316 314 314 314 312 310 308 307 306 307 307 304 301 298 296
321 321 321 322 323 324 323 323 323 322 322 323 323 322 322 322 322 323 323 323 324 324 325 325 326 326 328 331 331 330 329 330 331 331 331 332 333 332 333 333 333 333 333 332 332 331 330 329 329 328 329 329 328 327 327 326 325 325 325 324 322 321 321 322 324 325 324 323 322 321 320 318 316 314 314 314 313 312 310 309 307 307 306 303 301 299 297
320 320 321 322 323 323 323 324 323 323 322 322 321 321 321 321 321 322 323 323 324 325 325 326 326 327 327 327 326 326 328 330 330 330 330 330 331 330 330 331 332 332 332 332 331 331 330 329 328 328 328 328 328 326 326 325 325 324 323 323 322 321 321 322 324 325 325 324 322 322 321 319 317 316 315 313 312 313 312 311 310 308 307 304 302 301 299
319 319 320 322 323 324 324 324 323 322 322 321 320 319 320 320 320 320 321 322 322 323 325 326 326 327 327 326 325 327 329 329 329 329 329 330 329 329 329 330 331 331 331 331 330 330 329 328 328 328 328 328 327 326 325 325 324 324 323 322 321 321 321 322 323 323 324 324 323 322 321 320 318 317 315 314 313 312 312 311 310 309 308 307 305 303 301
319 318 319 320 321 322 323 322 321 321 321 321 320 320 320 320 320 319 320 321 321 322 323 324 325 326 327 326 326 328 328 328 328 328 328 328 328 328 329 329 330 330 330 330 329 329 328 328 328 328 328 327 327 326 324 323 323 323 322 321 321 322 323 323 323 323 323 322 321 321 321 320 318 317 315 313 312 312 310 310 310 309 308 308 306 304 303
318 318 318 319 320 320 321 322 321 321 321 320 321 321 320 320 320 320 320 320 321 322 322 323 323 325 326 326 327 327 328 327 327 327 326 326 326 327 328 328 328 328 328 328 328 328 328 328 327 327 327 326 325 324 324 323 322 321 321 321 321 322 323 323 323 323 323 322 321 320 318 317 316 315 313 311 310 311 310 310 310 309 307 307 306 305 305
319 319 319 319 319 320 321 321 320 321 321 320 319 319 318 319 319 318 318 319 319 320 322 322 323 324 325 325 326 327 327 327 326 326 326 325 324 325 326 327 327 327 327 327 327 327 327 327 327 326 326 325 323 323 323 323 322 321 321 322 322 322 323 323 323 323 322 321 321 319 317 315 314 313 312 311 311 311 311 310 309 308 307 306 306 306 305
318 319 319 319 318 318 319 320 319 319 319 319 318 318 316 316 316 316 316 316 317 319 322 323 323 324 324 324 324 325 326 326 326 326 326 325 325 324 325 325 326 325 326 326 326 325 325 326 325 325 325 324 323 323 323 323 322 321 321 322 322 323 322 322 321 321 320 319 319 319 317 315 314 314 313 313 313 312 311 310 309 308 307 306 306 306 305
317 318 318 318 318 318 319 319 318 317 316 316 317 316 315 315 316 316 315 316 317 319 320 321 322 322 323 323 323 324 324 325 325 325 325 325 325 325 325 325 325 325 325 325 325 324 325 325 324 324 323 323 323 323 322 321 321 321 321 322 323 323 322 321 320 320 319 318 317 317 316 315 315 315 315 314 313 312 311 310 309 308 308 307 307 306 306
316 317 317 317 317 318 317 316 315 315 315 315 315 315 315 316 316 315 315 316 316 317 317 318 320 321 322 322 322 322 322 323 324 324 324 324 324 324 324 325 325 324 324 324 324 323 323 324 323 323 322 322 322 322 321 320 320 320 321 322 322 322 321 320 320 319 319 318 317 316 315 315 315 315 315 314 313 311 310 310 309 309 308 308 307 307 306
317 316 317 316 316 317 316 316 315 314 315 315 315 314 315 316 316 316 315 315 316 317 317 318 319 320 321 321 321 322 323 323 323 323 323 323 323 324 324 324 324 324 324 324 323 323 323 323 322 322 322 321 322 322 321 321 320 320 320 320 321 320 320 320 319 318 318 317 317 316 316 316 315 314 313 312 311 310 310 310 309 309 309 308 307 307 306
318 317 317 316 316 316 316 316 315 314 313 314 315 315 315 316 316 316 316 316 316 317 318 319 319 319 319 320 320 321 322 322 323 322 322 323 323 322 323 323 323 323 323 323 323 323 322 322 322 321 320 320 320 320 321 321 321 319 318 318 318 318 318 319 319 318 317 317 316 316 316 316 316 314 313 311 310 310 309 309 309 309 308 308 307 306 305
317 317 317 317 317 317 317 316 316 316 315 315 315 316 316 316 316 315 315 316 316 316 317 317 317 317 317 318 318 318 319 320 320 321 321 322 322 322 322 322 322 322 322 322 323 322 321 321 322 321 319 319 319 319 319 320 320 319 318 318 317 316 317 318 318 318 317 317 316 316 316 316 315 314 313 312 311 310 309 309 309 308 307 306 306 305 304
316 317 318 317 317 316 316 316 316 316 316 315 315 316 316 317 316 315 315 315 315 315 315 316 315 316 316 316 316 316 316 317 318 318 319 319 320 320 320 320 321 321 321 321 321 321 321 321 320 320 319 319 319 319 318 319 319 318 318 317 317 316 315 316 317 317 317 316 316 316 315 315 314 313 312 312 311 310 310 309 308 307 306 305 305 305 304
316 316 317 317 316 316 316 316 315 315 315 315 315 315 316 316 316 315 315 315 314 314 314 314 314 315 315 315 315 316 316 315 315 316 316 317 317 319 319 319 319 320 320 321 320 320 320 320 320 319 319 318 318 318 318 318 318 317 316 316 316 315 314 314 315 316 317 317 316 315 315 314 313 312 311 311 311 310 309 309 307 306 306 306 305 305 304
314 314 315 315 315 315 315 315 314 314 314 314 314 315 315 315 315 315 315 315 314 314 313 313 313 314 314 314 314 315 314 314 314 315 315 315 316 316 317 317 317 318 319 319 319 319 319 319 319 319 319 318 318 318 317 317 317 316 315 314 315 315 314 314 315 315 316 316 315 315 314 314 313 312 311 311 310 309 309 308 307 306 306 306 306 305 304
313 313 314 314 314 313 314 314 314 314 314 314 314 315 315 314 314 314 314 314 314 313 313 313 312 312 312 313 313 312 312 313 313 313 314 314 314 315 316 317 317 316 316 316 317 317 317 316 316 318 318 317 317 317 317 316 316 316 315 314 314 314 314 314 314 314 314 314 314 313 313 312 311 311 311 310 309 309 308 308 307 306 306 306 305 305 304
313 313 313 313 313 313 313 313 313 314 314 314 314 315 315 314 313 314 314 314 313 313 312 312 311 311 311 311 311 311 311 312 312 312 313 313 313 314 315 315 315 314 313 313 314 314 313 313 315 316 317 317 316 316 316 316 316 315 314 314 314 314 314 313 313 312 312 312 312 311 311 311 310 310 310 310 309 309 308 307 306 306 305 305 305 304 304
313 313 313 313 312 312 312 313 313 313 313 313 313 314 314 314 314 314 314 313 312 311 311 311 311 311 311 311 311 311 311 312 312 312 312 313 313 314 314 313 312 312 311 311 311 312 312 312 314 316 317 316 316 316 315 315 315 315 315 314 314 314 313 313 312 311 311 311 311 310 311 311 310 310 310 310 309 308 307 306 306 305 305 305 305 304 304
312 312 313 313 312 311 311 311 311 311 311 311 311 312 313 314 314 313 313 312 311 310 310 310 311 311 311 311 311 311 312 312 312 312 313 314 314 313 312 312 311 311 311 311 311 312 312 313 314 315 315 315 315 315 315 314 314 314 314 313 313 313 312 312 312 311 311 311 311 310 310 310 310 309 309 310 309 308 307 306 306 306 305 305 305 305 304
312 312 312 312 312 311 310 311 311 310 309 309 310 310 311 312 312 312 311 311 310 310 310 311 311 311 310 310 311 311 311 311 312 312 313 314 314 313 312 311 311 311 311 311 311 312 312 312 312 313 313 313 313 313 313 313 314 313 312 312 311 311 312 312 311 311 311 311 310 310 310 309 309 309 309 309 309 309 308 307 306 305 305 305 305 305 304
311 311 311 311 311 312 311 311 311 310 309 309 309 309 309 311 311 310 310 310 310 310 311 311 310 310 309 310 310 310 311 311 311 312 312 312 312 311 310 310 311 311 311 311 311 311 311 311 311 311 311 312 312 312 312 312 312 312 312 311 311 311 311 311 311 310 310 310 310 309 309 309 309 308 308 308 309 309 308 307 306 305 305 305 305 304 304
309 309 310 310 311 311 311 311 311 310 310 310 310 309 308 310 311 311 310 310 310 309 310 310 310 309 309 310 310 310 311 312 312 311 312 312 311 310 309 310 311 311 311 311 311 311 311 311 311 311 311 311 311 311 311 311 311 311 311 311 311 311 310 310 310 310 310 310 310 309 309 309 309 309 308 308 308 308 307 307 306 305 305 305 305 304 304
307 307 307 308 310 310 311 310 310 310 310 310 310 310 309 309 310 310 310 310 309 309 309 309 309 309 309 309 310 310 311 311 311 311 311 311 311 310 309 309 310 311 310 310 310 310 310 310 311 311 311 311 311 311 311 311 311 311 311 311 311 311 311 311 310 310 310 310 310 309 309 309 309 309 309 309 308 308 307 306 306 305 305 305 304 304 304
305 306 306 307 308 308 308 308 308 308 308 308 309 309 309 309 309 309 309 310 309 309 309 309 309 309 309 309 309 310 309 310 310 310 310 310 311 310 309 308 309 310 310 310 310 310 310 310 310 310 310 310 310 311 311 311 311 311 311 311 311 311 311 310 310 310 310 310 310 309 309 309 308 308 308 308 308 308 307 307 306 305 305 304 304 304 304
302 303 304 305 305 305 304 304 304 305 306 307 308 308 309 309 308 308 308 309 309 309 309 309 309 309 309 309 309 309 309 309 309 309 309 309 310 309 308 307 308 309 309 309 309 308 308 309 309 309 309 310 310 310 311 311 310 310 310 310 310 310 310 310 310 310 309 309 309 309 308 308 308 308 308 308 307 307 307 306 306 305 304 304 304 304 304
299 300 301 301 302 302 302 302 302 303 304 305 306 306 306 306 306 307 308 308 308 309 309 309 308 308 309 309 309 309 309 308 308 308 308 308 309 308 307 307 308 308 309 309 309 308 307 306 306 307 308 309 309 309 309 310 310 309 309 309 309 309 309 309 309 309 309 309 308 308 308 308 307 307 307 307 307 306 306 305 305 305 304 304 304 304 304
298 298 298 299 299 300 300 300 301 301 302 303 304 304 303 303 303 304 305 307 308 308 307 306 306 307 308 308 308 308 308 308 308 308 308 308 308 308 308 307 308 308 308 309 309 309 307 305 304 304 305 307 308 309 308 308 308 309 309 308 308 308 308 308 308 307 307 308 307 307 307 307 307 306 306 306 306 305 305 305 305 305 304 304 304 304 304
Wind_Speed
12 9 8 10 17 17 16 19 20 21 23 22 18 11 9 10 8 7 10 7 4 4 6 8 7 6 7 8 7 10 12 12 11 12 15 19 22 25 28 32 37 39 37 37 37 36 36 36 36 35 35 36 35 36 41 42 40 39 40 39 36 35 35 36 36 37 36 35 32 32 33 32 30 28 28 26 23 20 20 21 21 21 22 22 22 21 20
11 11 11 12 16 17 17 20 21 21 21 19 16 14 15 16 13 12 12 7 3 4 1 4 1 7 6 3 8 10 10 11 12 14 16 18 18 20 22 27 35 37 35 35 36 36 36 37 39 37 35 36 37 37 41 43 41 40 40 39 37 35 35 35 36 36 35 35 34 34 33 32 31 31 30 26 23 21 22 22 21 22 23 23 23 24 24
9 11 12 13 15 17 18 20 21 21 20 19 19 16 14 14 14 15 12 7 3 1 2 3 8 15 10 2 7 10 9 9 10 13 17 18 18 21 23 27 32 32 31 33 35 35 37 38 39 38 36 37 38 36 38 42 42 40 39 39 38 37 35 35 36 36 36 37 37 35 34 33 33 33 30 25 23 22 23 22 22 24 26 26 26 27 26
4 9 14 14 13 15 18 18 19 20 18 17 16 13 10 10 12 13 10 4 4 3 4 6 6 8 4 1 2 4 8 12 11 10 14 18 20 21 22 25 29 30 29 32 35 36 37 37 37 36 35 36 37 37 39 43 43 40 39 40 39 37 35 35 36 37 37 37 36 35 34 34 34 32 28 24 23 23 24 24 25 27 28 28 28 28 26
4 8 12 9 7 11 14 14 17 19 18 17 16 13 12 13 12 9 6 5 6 5 5 8 7 6 6 6 10 12 10 14 17 14 13 17 21 24 25 26 28 30 31 32 34 36 36 36 37 36 35 35 35 37 40 43 41 39 39 40 39 37 36 35 36 36 37 36 35 35 35 33 33 32 29 26 25 25 26 26 26 26 28 28 29 30 26
4 5 4 6 5 9 7 6 13 19 19 19 18 14 15 16 14 10 8 7 7 6 5 6 8 10 11 12 15 17 12 9 13 14 12 13 16 20 25 28 28 31 33 32 33 36 36 36 37 35 32 33 34 36 40 42 40 38 39 39 39 37 35 34 35 34 34 35 35 36 35 33 34 32 30 28 27 27 27 25 25 27 29 30 30 29 25
2 4 5 4 5 7 6 6 10 16 19 20 18 16 16 17 16 14 12 10 8 7 7 8 6 7 9 11 14 16 11 5 7 8 9 10 13 17 22 26 29 31 32 31 33 37 37 36 35 34 32 32 34 36 39 41 39 39 40 40 39 37 34 33 33 33 33 35 37 37 35 33 34 33 31 30 29 28 26 25 25 27 30 31 30 28 26
2 1 0 3 4 9 12 12 10 13 17 18 16 14 14 14 13 12 12 13 10 8 11 14 12 10 10 14 19 16 10 9 9 12 14 12 13 18 23 26 27 30 31 33 36 38 37 35 34 34 35 34 34 34 36 39 39 38 38 37 36 35 34 34 33 31 32 36 37 37 35 35 35 34 33 32 29 28 26 24 24 25 27 30 30 28 27
1 0 1 4 7 10 11 9 6 9 11 9 9 9 10 13 13 13 14 15 12 12 14 15 13 11 10 12 15 10 6 9 12 15 15 14 14 16 23 25 24 26 30 35 38 37 36 35 33 34 37 37 35 33 34 38 39 37 35 33 33 34 33 32 32 32 33 35 36 36 35 35 35 35 34 32 30 29 27 25 24 23 25 28 29 27 26
1 1 2 4 6 5 4 5 9 10 9 5 2 4 7 10 13 14 14 15 14 13 13 13 13 10 8 8 8 6 5 11 17 16 14 15 14 12 21 24 24 28 33 37 38 36 35 34 33 34 36 38 36 36 37 39 39 38 36 34 34 34 31 29 30 30 31 32 33 34 34 33 35 35 33 31 30 29 28 25 23 23 24 26 26 24 23
2 2 3 4 4 3 5 9 13 15 15 9 2 5 7 7 10 15 14 11 10 11 12 14 12 6 6 7 5 4 5 14 19 17 12 10 9 11 19 23 27 33 36 37 37 36 34 35 35 34 34 35 34 35 38 39 39 38 36 35 34 32 30 31 30 29 29 30 31 33 32 30 31 32 30 29 29 29 27 24 22 22 24 25 24 22 22
4 3 4 4 3 3 5 8 12 17 17 10 5 7 5 1 4 9 12 12 13 14 14 14 9 6 9 8 2 4 4 7 10 12 10 7 7 11 16 22 28 33 34 35 36 35 33 36 38 35 32 33 33 33 34 35 35 35 35 35 35 33 33 34 31 29 29 29 29 30 30 28 29 29 28 28 28 28 25 22 21 22 23 23 22 22 22
4 4 4 3 3 5 4 5 12 19 15 7 6 5 2 6 11 9 6 8 14 19 17 12 9 10 12 7 7 6 5 4 7 11 11 11 11 13 16 22 28 31 33 33 32 31 30 34 36 35 34 35 34 32 32 31 31 32 32 33 34 35 34 32 29 30 30 27 27 30 31 29 29 29 29 29 28 27 25 22 21 21 21 21 21 22 23
3 3 4 4 3 4 4 8 16 19 10 4 2 3 5 8 10 10 9 9 9 12 19 19 12 8 7 7 7 7 6 7 10 12 14 15 16 18 22 25 26 29 32 30 27 28 30 33 35 33 33 34 31 29 30 29 30 32 32 32 33 34 33 30 29 30 30 28 29 32 32 31 31 31 30 29 27 27 25 22 21 23 24 24 25 25 25
3 3 4 3 2 0 3 8 12 9 2 1 3 5 6 7 7 7 6 9 16 15 15 22 14 11 9 5 4 5 7 10 12 13 17 19 19 23 28 28 26 27 28 27 26 28 31 34 34 31 31 31 30 29 29 29 30 33 35 36 36 34 33 33 31 27 27 29 31 31 30 30 30 30 29 28 27 27 25 24 24 27 28 27 26 25 24
3 2 2 3 2 0 3 2 3 3 6 10 9 5 5 5 4 5 4 4 11 18 13 15 16 14 8 4 2 4 8 11 13 15 18 20 21 25 30 28 26 26 26 25 26 28 31 34 33 30 30 31 30 29 27 27 30 34 34 34 34 33 34 34 31 27 27 29 29 29 29 29 29 28 27 28 28 28 27 27 28 29 27 25 25 24 23
2 2 5 4 2 1 1 1 4 4 7 14 14 9 6 5 4 5 4 1 3 10 5 8 14 11 6 3 2 3 7 11 14 15 19 21 22 26 29 27 25 24 25 26 26 28 31 33 32 30 30 31 30 29 27 27 31 33 33 32 32 32 32 33 33 31 31 30 29 29 29 27 26 27 28 28 29 29 29 30 30 27 24 22 22 22 23
3 5 11 6 4 4 1 1 4 6 9 14 19 17 13 11 7 4 2 2 2 3 4 8 9 7 3 2 3 4 8 12 14 16 19 23 24 26 28 27 25 24 24 26 27 27 29 30 30 30 29 29 29 28 28 29 31 31 32 32 29 26 27 30 33 34 33 32 31 30 28 26 25 26 27 28 29 30 30 30 28 25 23 22 22 24 24
4 3 7 5 3 4 1 0 2 6 10 12 16 16 20 23 14 4 3 6 6 6 7 7 6 5 2 2 3 6 9 14 16 15 17 20 21 25 27 27 26 25 24 25 26 26 26 27 27 28 27 26 28 28 28 30 31 30 31 31 28 26 27 29 32 34 34 34 33 31 28 27 26 26 27 27 29 30 30 30 27 24 24 24 26 26 25
7 3 2 3 1 3 4 4 4 7 10 9 10 7 13 23 20 9 8 10 11 10 10 10 9 8 5 4 5 5 7 12 14 14 16 17 18 24 28 26 25 25 23 23 24 24 23 24 25 25 24 24 27 28 28 30 31 31 33 33 32 32 30 27 28 29 29 30 31 32 30 28 27 27 27 27 28 29 29 29 27 26 26 27 27 27 25
6 1 6 9 7 7 11 11 11 12 12 10 11 7 7 16 20 18 15 14 14 13 11 12 13 12 9 8 9 7 7 11 14 15 18 19 18 24 28 25 23 25 25 24 24 22 21 22 22 22 23 23 24 25 27 29 30 32 34 35 34 34 31 27 25 25 23 22 25 28 30 29 27 27 26 27 29 29 27 27 27 26 25 25 26 26 25
3 2 7 9 5 2 7 8 9 10 10 10 10 10 8 12 17 19 19 16 14 13 13 13 14 13 12 12 12 10 8 11 15 17 18 17 16 24 27 23 22 24 26 27 26 22 21 20 19 20 21 20 20 23 26 27 29 33 36 35 35 33 31 29 28 26 24 23 22 24 27 28 28 28 27 27 27 26 26 26 26 24 22 22 23 24 25
3 5 5 4 6 6 4 3 4 2 7 8 5 8 11 12 13 16 18 16 15 14 13 14 14 14 14 14 14 12 10 11 13 15 14 12 13 20 21 19 18 19 22 28 29 25 23 21 18 18 18 18 21 25 26 25 29 32 33 34 35 32 30 30 30 29 28 27 24 24 26 27 29 30 29 27 25 24 25 25 24 23 21 20 21 23 24
6 7 5 2 2 4 3 1 1 3 6 6 6 10 12 12 11 12 13 13 15 16 15 14 14 14 14 14 14 14 13 11 10 10 11 10 12 15 16 14 13 14 19 25 28 27 25 22 19 17 17 18 22 25 23 24 29 30 27 28 31 30 29 31 31 30 29 28 26 26 27 28 30 31 31 30 28 25 23 23 22 22 20 19 21 23 23
7 5 4 4 4 2 2 1 1 4 6 6 7 9 10 11 10 9 8 10 12 12 13 15 15 13 13 14 14 13 12 11 11 11 11 11 11 12 14 12 10 13 19 23 24 24 24 22 18 18 19 20 21 20 19 23 29 31 26 23 25 27 28 29 28 27 27 28 27 27 28 30 31 31 30 31 32 29 25 23 23 21 19 19 21 22 21
9 6 5 5 3 2 2 3 1 2 4 6 7 8 9 10 9 7 6 8 10 10 10 12 13 12 13 13 12 12 12 12 12 11 11 12 11 11 11 11 10 13 17 20 22 23 22 20 18 18 20 21 20 20 20 23 28 29 24 18 20 24 25 23 23 24 26 28 29 27 27 30 32 31 30 31 32 31 29 28 26 23 21 22 22 21 20
8 7 5 3 2 2 1 1 0 1 2 5 5 5 7 8 8 6 4 6 8 9 8 8 9 10 11 11 11 13 14 13 11 10 10 11 9 8 7 7 9 11 12 15 18 19 17 16 17 19 21 21 20 20 22 24 24 25 23 20 23 25 21 17 19 23 23 25 27 26 26 29 32 32 31 31 30 30 30 30 27 24 23 24 24 22 22
5 8 7 3 1 2 3 2 1 1 1 3 4 4 5 7 7 5 4 5 6 7 7 8 8 7 8 9 10 11 11 10 10 11 11 10 8 7 6 6 8 9 10 11 14 16 15 16 17 19 23 24 22 21 22 23 22 22 21 20 21 23 21 18 18 19 20 23 26 24 24 27 30 31 31 30 28 28 29 29 27 25 24 24 25 24 23
2 8 8 5 3 2 2 1 1 1 0 2 3 3 4 6 7 4 3 5 6 6 7 7 6 6 6 6 7 7 6 7 8 9 9 9 8 7 7 7 9 10 11 11 12 13 16 18 19 20 23 25 25 22 20 19 20 21 20 18 17 18 20 20 18 16 18 22 24 24 24 25 28 29 29 28 26 25 26 26 25 24 24 25 25 26 26
6 5 8 6 4 2 1 2 3 2 1 2 4 4 3 4 3 2 2 3 4 5 5 5 4 5 6 5 5 5 4 5 6 6 4 4 6 6 6 8 9 11 12 11 11 12 15 17 18 20 21 21 22 22 21 20 20 19 17 16 13 12 14 16 16 17 18 20 23 25 25 25 26 27 26 25 24 23 23 23 22 21 22 24 26 28 30
11 6 2 5 5 3 2 3 4 2 1 2 2 3 2 3 3 4 5 5 5 5 5 5 5 5 4 4 4 4 3 4 6 6 3 1 2 3 5 6 8 8 9 10 10 10 12 13 14 18 20 18 17 19 20 21 21 18 15 13 11 10 11 13 15 18 21 22 23 25 26 26 27 27 26 26 26 24 23 21 18 17 18 21 23 27 29
5 8 3 3 5 3 3 6 4 0 2 1 2 1 4 5 5 6 7 6 6 5 5 5 5 4 3 3 3 3 4 4 5 6 6 4 3 3 4 4 5 4 6 8 8 8 11 13 14 16 18 16 14 14 16 19 20 19 16 14 14 14 14 15 16 18 21 24 25 24 25 27 28 27 27 27 26 25 23 19 17 17 18 19 20 23 26
4 6 4 2 1 1 3 6 4 2 5 6 2 2 4 4 5 7 7 6 6 6 5 4 3 2 1 2 2 2 3 3 4 5 6 6 5 5 4 5 5 4 6 9 8 7 10 13 14 14 14 13 13 15 16 18 18 17 16 16 16 16 17 17 16 16 19 22 23 22 23 25 26 25 25 24 23 22 20 18 19 20 19 17 17 19 22
5 5 3 4 5 4 3 0 2 4 9 9 4 1 1 2 5 7 8 7 7 6 5 3 2 1 2 2 2 1 2 2 3 4 4 5 5 5 5 6 5 5 8 10 8 7 9 12 12 12 12 13 15 16 17 16 14 13 15 17 16 16 18 18 17 17 18 19 20 20 21 23 23 23 22 21 21 20 19 19 20 21 20 18 17 17 21
3 3 3 4 5 4 4 4 3 2 6 8 6 3 1 3 5 6 7 7 7 6 5 4 3 3 3 4 3 3 3 3 4 5 4 4 5 5 5 4 3 5 7 8 6 6 9 12 13 12 11 12 13 15 16 16 14 13 14 13 12 13 17 18 17 18 18 18 19 20 21 22 23 23 22 20 19 19 19 19 20 20 19 18 18 19 21
3 3 3 4 3 2 2 1 1 1 3 6 9 8 4 3 3 5 6 6 7 6 5 5 5 6 7 7 7 7 6 5 5 5 4 4 4 4 4 4 4 5 6 6 6 6 8 10 12 10 8 8 9 10 11 14 14 14 15 12 8 9 15 18 18 18 18 18 19 20 21 22 23 23 23 22 19 17 17 18 19 19 20 19 19 20 22
2 2 1 1 1 2 1 2 3 3 2 3 5 5 2 1 2 3 4 5 5 5 5 5 6 7 8 8 8 9 9 8 7 6 5 3 3 3 2 2 3 4 5 5 7 8 9 11 11 9 8 9 9 8 9 12 15 16 17 14 9 8 11 16 19 20 20 19 19 20 20 21 21 22 23 23 20 17 16 17 18 19 20 19 18 20 22
2 2 2 3 3 3 3 3 3 3 3 3 3 2 0 1 1 2 3 4 5 5 4 3 4 4 5 6 8 9 9 9 8 7 6 4 2 1 1 1 2 4 4 5 6 8 9 10 10 11 12 12 12 11 11 14 16 17 18 17 12 8 9 13 18 22 22 21 21 21 21 22 21 21 23 24 22 19 17 17 18 19 19 18 19 20 22
6 5 4 4 4 3 3 2 2 1 2 2 2 1 1 2 1 0 2 3 4 4 4 3 3 2 2 3 5 7 8 8 8 7 6 6 5 4 1 1 2 3 5 6 6 8 8 9 10 12 13 14 13 13 13 15 17 15 14 15 13 10 8 10 15 20 22 22 21 22 22 23 22 21 21 22 22 21 20 19 20 20 20 19 20 21 22
9 5 3 2 2 2 2 2 1 2 2 2 2 2 2 3 2 1 2 3 2 3 5 5 5 5 4 3 4 6 7 7 7 7 7 6 5 3 1 2 3 4 5 6 5 5 5 6 9 12 14 16 17 16 16 17 18 16 13 13 13 11 9 9 13 18 20 21 21 22 21 21 20 20 19 19 21 21 20 20 20 20 20 20 19 20 21
10 7 4 2 1 1 1 1 1 1 1 2 1 2 3 3 2 1 2 2 2 4 5 6 7 8 6 5 6 7 7 6 5 5 5 5 5 5 1 5 5 4 4 5 5 5 5 5 7 9 14 17 17 17 17 18 20 19 16 13 12 10 9 9 12 15 17 19 19 19 19 18 18 19 19 20 21 22 21 22 22 22 22 21 20 20 20
11 9 6 3 1 1 0 1 2 2 1 2 1 1 2 2 1 1 3 2 2 4 4 5 8 10 7 5 5 7 7 5 4 4 4 3 4 5 3 4 2 1 2 3 4 5 7 8 6 9 15 15 14 15 15 17 20 22 18 14 12 11 10 11 13 14 15 17 18 18 19 18 18 19 21 22 23 22 22 23 24 24 22 22 22 21 20
10 9 8 5 2 1 1 1 1 1 1 2 2 2 1 1 2 3 3 2 3 4 4 4 8 9 8 5 4 5 5 4 3 3 2 1 1 2 2 3 4 7 5 3 3 3 5 7 7 13 17 14 11 12 13 17 21 22 17 14 16 17 16 17 18 18 18 20 21 21 21 21 21 22 24 25 25 24 21 20 22 22 22 24 25 23 21
8 8 11 10 5 1 1 1 2 3 3 3 3 2 3 3 4 4 3 4 5 5 4 5 7 7 7 7 6 5 5 5 4 4 3 4 4 3 2 2 6 8 4 1 2 1 5 6 7 11 14 12 10 9 11 15 20 20 15 15 19 20 20 22 22 20 20 21 22 22 23 24 23 23 24 26 26 26 24 23 22 22 22 24 25 23 21
8 6 8 11 10 4 1 2 2 3 4 4 3 3 3 4 4 3 3 5 7 6 4 5 6 6 5 6 5 5 5 4 3 4 5 6 5 3 5 6 7 6 4 6 4 2 4 5 5 6 9 10 11 10 9 12 18 19 16 14 14 13 15 18 20 17 16 17 17 18 19 20 20 21 24 26 26 26 27 26 24 22 20 21 21 21 21
12 5 3 8 12 7 1 2 3 3 5 6 6 4 3 3 3 3 4 5 7 6 4 4 5 5 5 5 5 4 5 4 3 3 4 5 5 5 5 6 5 2 7 8 5 2 3 4 5 7 8 9 10 9 6 8 13 14 11 9 7 5 6 10 11 10 9 10 11 12 13 13 15 17 20 21 23 24 24 24 23 21 20 20 22 22 23
16 12 8 7 8 7 5 4 4 4 6 6 5 5 4 3 2 2 3 4 5 5 3 3 4 4 5 5 6 5 5 5 6 5 5 6 8 9 8 7 4 4 8 7 3 2 3 5 6 6 7 7 6 6 5 5 7 8 8 9 8 6 4 7 10 9 9 9 11 12 11 10 10 12 13 13 15 18 19 20 22 23 22 23 24 23 22
11 12 12 13 13 13 12 11 10 10 10 8 7 7 7 6 5 4 3 2 1 2 3 4 5 5 4 4 5 5 5 6 8 8 7 7 9 10 10 9 6 6 6 3 3 3 1 1 2 2 2 4 9 12 9 5 6 6 6 7 8 7 5 6 8 9 8 8 10 12 11 10 11 12 12 11 12 15 17 19 22 23 23 22 23 21 18
7 6 7 11 15 16 16 15 14 13 13 12 11 11 10 7 6 7 7 6 5 4 3 4 5 5 4 4 4 5 6 6 7 7 7 7 8 10 11 9 7 5 6 6 7 6 4 5 7 7 7 9 12 11 7 3 5 6 4 4 5 6 5 6 6 7 8 8 8 10 12 11 10 12 13 14 15 18 21 22 22 22 22 22 22 19 16
9 6 5 7 11 12 13 13 12 10 9 10 12 14 13 9 6 6 8 9 9 7 6 6 7 8 8 8 7 7 7 6 5 5 6 7 7 8 9 8 6 5 6 8 9 9 7 7 7 8 9 10 10 7 3 2 4 5 3 3 3 3 4 6 7 7 8 8 7 9 12 12 10 10 12 13 13 15 17 18 18 19 21 21 20 17 15
18 16 15 13 13 11 10 10 9 8 8 10 13 16 16 14 9 5 5 8 9 9 10 12 11 8 8 10 10 9 8 7 6 5 7 7 6 7 8 7 6 7 7 6 7 9 10 9 8 7 7 9 8 5 2 1 3 3 2 3 3 3 4 5 6 7 8 8 7 7 9 10 10 10 11 12 11 12 13 13 14 16 18 19 20 20 18
21 21 20 19 17 16 15 13 12 10 10 11 13 15 16 15 12 8 6 7 8 10 12 13 10 6 3 5 7 8 7 7 5 4 5 5 5 6 7 7 7 7 7 4 3 5 7 8 9 8 7 7 6 3 0 1 2 2 3 3 3 3 4 4 4 5 7 8 8 7 7 8 9 10 11 12 13 13 14 15 15 16 17 18 20 22 21
Wind_Direction
256 265 269 222 202 207 210 205 213 222 225 229 234 246 272 265 247 239 246 241 173 179 239 242 223 193 180 173 153 156 155 139 125 121 134 151 159 159 161 167 177 184 186 185 186 187 189 190 190 191 191 192 195 196 194 192 192 193 192 192 193 194 194 195 195 197 200 202 201 200 200 200 200 203 206 203 200 199 196 194 196 191 188 189 183 176 178
253 248 265 251 219 209 212 213 214 220 226 228 231 243 251 247 240 240 254 271 204 165 290 292 3 58 53 111 123 130 145 152 166 170 158 153 161 168 168 172 179 184 186 186 186 188 189 190 191 191 189 191 194 194 194 193 193 194 193 192 194 194 192 192 194 197 200 200 199 199 201 201 201 204 203 198 195 196 194 195 195 191 189 187 181 181 187
261 256 254 243 224 212 214 219 218 218 223 225 223 226 231 233 234 237 252 287 305 104 68 39 51 52 43 90 131 129 145 158 172 184 178 174 180 183 181 182 185 185 185 186 187 190 191 191 192 191 190 191 192 193 194 194 193 194 192 191 193 193 189 189 193 196 198 199 199 199 201 200 201 202 198 194 194 194 195 197 196 193 194 190 187 193 200
264 280 265 249 237 225 219 221 221 217 219 225 225 221 222 229 233 238 248 258 262 246 155 121 75 58 54 260 218 173 168 170 178 188 186 186 191 191 188 188 187 186 188 190 189 189 191 191 190 189 190 191 192 193 194 193 192 192 190 189 190 190 188 189 193 197 199 200 199 199 200 200 201 199 192 189 194 195 199 204 201 200 202 199 196 200 206
246 252 256 269 280 243 220 213 217 216 218 226 228 218 219 233 241 248 247 220 226 239 168 140 144 169 185 213 232 234 210 180 179 188 195 192 190 193 196 194 188 186 190 193 190 189 189 190 190 189 190 191 192 192 191 190 190 190 188 187 187 188 186 186 190 195 199 201 200 199 199 199 199 196 189 188 196 202 208 210 207 207 209 205 202 203 208
283 271 301 343 299 244 224 209 213 215 217 224 226 218 212 218 227 241 251 234 227 235 214 174 171 191 208 211 216 227 232 193 169 178 197 197 187 191 196 193 190 192 193 192 190 189 190 192 193 191 190 192 192 190 190 190 189 187 186 185 185 184 182 183 189 196 201 202 200 197 197 198 197 195 194 196 202 209 215 214 211 211 211 207 205 206 211
285 356 10 332 258 255 292 288 238 225 222 221 224 228 223 215 215 228 246 248 236 239 254 251 233 226 237 247 245 236 224 171 141 172 208 210 192 191 195 191 191 197 198 192 187 187 188 191 192 189 188 191 191 189 189 189 189 188 186 185 184 185 186 189 195 200 200 198 198 197 196 196 197 197 199 203 208 212 215 214 212 213 212 210 210 209 213
242 54 117 248 295 300 279 266 257 243 229 218 216 223 227 225 219 218 235 251 250 243 243 244 249 257 259 269 272 256 204 166 181 201 214 223 215 202 194 189 189 194 196 191 186 185 188 188 188 189 189 189 189 188 188 189 188 187 186 187 190 194 197 199 200 201 198 196 197 197 194 195 197 198 200 207 214 217 216 214 215 216 213 211 212 212 216
268 6 276 275 297 286 254 245 270 262 241 224 216 218 216 217 218 213 216 226 232 242 247 243 247 261 266 269 270 257 193 186 208 210 209 225 239 214 188 183 189 194 194 190 185 185 187 186 186 189 191 192 192 188 186 186 185 183 183 186 190 192 195 200 201 199 199 199 199 197 194 195 199 201 203 210 218 222 220 216 217 217 213 212 213 215 216
358 9 320 286 285 275 258 311 327 310 301 315 297 253 227 208 214 221 218 212 212 225 247 252 247 246 255 266 257 226 215 237 235 224 215 227 238 202 173 177 190 192 188 186 184 185 185 183 184 187 188 190 190 185 183 183 182 180 180 182 186 186 187 192 194 192 195 196 195 195 196 198 200 202 206 213 219 223 222 220 222 220 215 214 215 215 213
310 320 297 285 288 281 282 311 327 319 310 316 304 241 228 200 213 224 223 219 214 212 222 234 239 237 239 255 248 195 235 258 243 222 212 227 221 173 166 176 183 182 181 182 182 182 183 183 184 185 185 184 182 179 180 182 181 182 183 184 187 186 183 182 181 181 188 192 193 197 201 201 200 202 209 216 219 221 221 221 223 221 216 216 215 212 208
284 288 284 271 255 264 289 316 324 313 303 293 240 217 215 331 298 246 225 217 215 215 219 222 219 227 242 242 162 136 212 250 223 193 185 201 191 165 166 173 174 174 175 177 178 179 181 183 184 185 183 182 179 176 178 181 184 187 188 188 188 185 182 182 181 183 191 195 197 202 205 202 201 206 214 218 218 219 220 218 217 216 214 214 210 205 202
276 277 288 285 261 273 304 324 301 291 286 266 221 209 241 331 331 320 291 249 226 215 213 215 218 227 232 206 143 149 192 192 182 185 184 188 194 187 177 175 174 172 170 171 174 178 180 181 183 184 182 181 180 179 179 181 185 188 189 187 187 186 185 186 187 191 198 201 199 202 205 204 204 208 215 218 217 216 217 214 210 207 204 203 200 199 200
277 273 277 286 274 273 315 322 296 280 258 209 221 278 303 311 318 329 345 344 305 240 211 209 211 191 167 155 156 172 185 178 184 189 181 176 181 181 176 175 175 171 168 167 168 170 175 177 178 180 181 181 182 181 182 184 184 186 187 184 183 184 184 185 191 198 202 202 200 203 206 208 208 210 212 215 215 213 211 207 202 199 196 194 194 199 206
263 262 265 290 303 272 6 338 312 297 295 358 295 288 300 317 330 330 349 12 351 319 239 207 182 126 114 129 150 170 186 188 189 186 179 175 175 174 172 171 170 169 168 168 169 171 174 175 176 179 181 183 184 182 184 187 185 185 187 186 184 184 184 188 195 199 200 202 204 208 211 212 213 212 211 212 212 210 205 199 198 198 197 197 201 209 214
255 256 244 272 280 208 75 50 279 297 324 311 301 300 316 335 357 342 357 43 350 322 269 193 146 114 116 127 127 192 203 195 190 183 175 171 172 171 167 164 169 173 169 167 170 174 176 175 176 179 182 184 184 183 186 189 185 185 189 189 188 189 189 193 198 200 201 206 209 210 213 215 214 213 212 212 209 205 203 203 205 205 203 207 215 218 215
219 255 250 236 179 115 68 203 240 272 307 310 319 338 346 353 14 349 344 68 330 318 303 134 113 108 123 111 90 226 213 193 186 178 171 170 168 164 160 161 168 172 168 165 167 172 176 178 178 180 184 184 182 181 184 187 184 184 184 181 181 187 192 197 203 204 205 208 211 213 215 216 214 213 213 210 205 203 206 209 209 210 212 216 218 213 207
205 249 258 245 133 120 126 280 303 345 357 335 330 338 345 355 14 8 348 120 134 8 58 95 97 105 131 130 141 184 200 196 185 173 172 173 165 159 160 162 163 163 164 166 167 168 175 179 179 182 186 187 183 180 181 184 184 184 184 183 185 192 199 202 204 206 207 208 209 213 215 214 215 215 212 208 206 207 210 211 211 214 216 212 205 201 203
234 251 258 253 153 145 141 146 318 13 20 345 328 339 345 341 339 348 66 84 92 83 93 112 117 123 152 194 170 180 197 196 187 175 170 169 163 159 160 160 162 163 162 165 168 168 171 175 177 181 185 189 190 187 184 186 186 187 191 192 189 189 194 198 201 204 209 210 210 211 212 211 210 210 209 210 212 212 211 211 212 212 208 202 197 199 204
254 240 261 300 149 114 57 28 350 24 36 357 332 352 348 337 339 4 51 67 80 87 100 115 119 130 156 165 156 169 183 181 179 170 164 169 173 165 158 155 159 160 158 163 168 168 169 173 175 177 181 186 190 191 190 189 187 188 193 193 188 187 192 198 200 202 206 212 214 212 211 210 209 209 209 212 216 217 215 214 213 207 202 202 202 202 206
278 285 354 360 24 39 28 20 2 9 32 18 347 345 351 352 359 12 27 44 63 75 90 104 113 125 141 143 142 151 159 162 166 165 170 182 181 160 151 151 155 155 155 161 164 164 167 173 175 177 182 187 188 191 193 192 189 191 194 193 192 194 198 203 205 201 199 204 210 211 209 208 209 211 213 215 217 217 216 217 217 214 210 211 210 207 206
335 5 357 13 54 15 355 1 348 1 43 44 353 337 2 20 16 11 12 23 40 57 72 86 98 112 118 122 131 140 144 153 160 166 176 185 168 148 147 153 159 159 160 163 165 167 170 174 177 179 182 186 190 191 190 190 192 195 194 192 192 194 198 206 211 206 200 199 202 204 206 205 205 207 210 214 218 217 214 215 220 221 222 224 221 213 209
306 304 334 52 136 193 256 285 277 339 64 71 36 15 26 31 24 14 11 11 12 23 48 68 79 90 97 104 116 122 124 138 153 162 170 166 142 136 143 153 160 164 165 165 167 170 172 174 180 183 183 187 192 189 182 183 193 197 194 193 197 200 204 210 211 206 203 201 196 195 200 203 204 204 203 204 210 215 216 218 221 223 225 226 223 216 213
278 291 313 11 167 201 212 237 285 25 43 59 71 59 47 44 40 24 19 25 21 14 22 39 55 74 86 92 99 103 105 111 120 133 145 142 129 130 138 145 150 156 163 168 172 175 176 176 181 186 191 195 195 191 187 189 196 200 201 200 202 206 209 209 207 205 204 201 195 194 198 201 202 203 201 199 202 206 211 217 221 223 223 220 217 218 218
281 285 306 311 294 244 193 181 86 43 37 47 61 56 51 60 61 39 26 38 38 29 29 32 34 47 65 77 86 91 99 105 103 102 115 124 125 130 136 140 146 154 163 171 177 179 180 182 184 186 193 199 196 193 197 199 198 203 210 207 202 206 209 207 206 207 205 200 197 196 198 200 200 201 203 205 203 201 202 207 213 217 220 220 220 220 216
286 294 312 304 284 228 200 202 201 29 53 78 78 60 52 57 61 59 53 42 34 36 45 42 34 34 46 61 75 81 92 105 102 91 96 107 113 120 131 146 165 170 169 173 178 180 183 188 191 189 192 198 196 192 198 200 196 199 206 201 194 205 215 212 210 212 208 201 198 198 200 202 200 200 206 210 208 204 204 207 210 210 211 214 217 218 212
268 289 309 292 218 139 106 138 175 6 66 91 93 87 77 67 56 47 44 43 39 37 39 41 42 42 43 53 69 77 82 91 94 87 90 100 107 113 127 158 178 176 170 173 180 182 179 180 186 191 195 199 198 195 200 205 201 200 201 193 191 203 215 213 209 212 209 202 200 200 203 204 203 204 208 210 210 210 212 215 215 213 210 210 213 215 212
308 308 315 297 208 120 99 85 2 331 57 67 65 80 90 84 75 57 31 37 48 44 38 38 43 47 47 50 60 68 74 81 86 91 98 104 111 122 143 172 184 181 175 176 183 186 181 176 184 195 199 200 197 191 193 201 204 204 204 200 199 207 212 211 210 214 212 205 202 204 208 208 208 210 210 211 212 214 214 217 220 220 218 216 214 214 214
349 305 315 307 270 233 177 197 309 312 190 31 18 17 40 55 62 62 50 47 51 54 54 48 40 40 48 55 57 59 68 81 84 88 98 106 112 128 153 172 178 179 180 180 186 192 190 188 191 194 195 195 194 189 187 190 193 193 196 202 207 208 205 204 207 215 215 208 203 206 211 211 210 210 210 210 213 214 213 217 222 223 223 222 218 215 216
170 278 321 318 278 263 268 287 300 289 271 353 344 336 4 42 39 19 40 52 51 59 66 64 53 44 42 51 63 68 81 96 93 92 95 95 101 118 141 159 169 175 180 189 198 201 199 198 199 197 193 191 190 188 188 189 188 191 200 210 215 209 201 201 206 213 216 212 208 209 209 207 206 206 202 200 204 210 214 219 222 222 223 225 225 223 222
161 170 317 314 290 280 325 344 326 309 40 48 348 336 30 67 67 56 55 46 35 40 54 58 59 58 56 63 74 86 105 110 108 115 122 89 73 102 121 145 165 173 179 188 196 196 195 197 196 197 201 202 198 198 202 203 202 207 214 213 210 211 215 219 221 219 215 213 212 212 209 204 203 202 198 197 202 208 213 217 224 224 218 216 223 229 229
149 139 124 331 321 321 349 355 347 49 92 55 236 146 59 53 51 53 51 39 31 39 57 60 56 58 78 87 82 91 107 113 120 130 135 134 118 101 108 138 160 164 174 184 187 185 188 194 196 200 207 214 216 215 213 208 206 210 213 209 207 209 213 219 224 222 216 212 211 213 211 208 206 205 204 204 208 211 212 212 218 223 218 213 218 227 232
57 88 122 174 168 229 306 339 352 354 355 353 352 93 65 53 62 60 49 38 37 43 53 63 64 65 89 97 93 91 98 112 129 135 138 141 135 125 134 155 163 167 181 189 192 187 188 198 205 205 210 224 230 220 208 201 203 209 216 220 218 210 205 211 220 223 219 214 212 214 214 210 209 210 211 211 212 212 210 205 207 216 223 223 218 222 233
85 90 137 152 138 171 213 138 49 346 340 351 8 65 30 31 50 47 34 28 30 31 32 38 54 95 106 105 114 110 87 108 128 133 138 142 143 150 160 161 166 181 187 191 198 192 186 196 208 212 216 223 220 207 198 196 198 205 217 226 224 211 204 208 215 219 218 215 214 215 213 209 207 208 209 209 207 203 200 200 204 212 221 225 220 220 232
125 110 114 116 110 127 157 139 119 327 334 349 351 339 356 48 45 35 29 24 20 17 23 33 43 69 88 89 91 92 87 101 118 124 131 141 150 160 161 154 160 174 176 184 195 180 175 192 208 219 224 221 207 196 195 193 187 193 212 226 227 216 209 209 214 218 217 213 212 213 212 210 208 202 197 198 201 198 197 204 211 214 218 222 221 221 227
171 132 110 107 93 81 101 119 329 328 353 356 352 354 11 46 40 28 25 22 17 19 33 50 61 73 79 79 78 77 78 86 100 107 117 139 158 164 160 167 179 169 162 176 186 170 176 203 215 216 217 214 200 192 193 187 181 192 212 223 227 223 215 210 211 215 214 211 212 212 211 213 214 207 198 197 201 203 204 209 213 215 218 220 220 221 226
214 186 142 94 26 17 349 297 302 300 293 311 332 346 4 38 36 22 14 15 23 31 44 61 73 78 80 80 76 71 68 70 75 80 87 111 159 182 184 192 192 182 181 196 196 183 186 205 212 202 189 186 183 178 179 177 179 194 213 223 230 234 222 211 208 211 212 212 213 213 211 213 216 212 205 201 200 204 210 213 214 216 218 219 219 221 225
270 277 276 285 310 325 310 283 277 277 275 285 306 316 82 105 54 20 18 27 32 33 42 61 69 76 88 90 80 70 63 58 56 59 60 53 54 96 162 171 171 182 195 210 214 207 198 197 198 191 182 182 188 189 187 185 186 195 211 221 228 238 237 221 212 213 214 214 213 212 213 213 212 209 207 204 201 204 212 216 217 217 217 213 212 216 222
291 289 288 284 289 299 291 269 264 285 287 285 288 273 181 157 160 26 54 55 42 29 30 35 33 35 59 68 60 58 56 46 40 39 34 31 42 57 71 209 197 190 190 192 209 219 212 208 213 206 188 184 194 201 197 191 187 188 200 213 222 237 250 234 219 217 218 218 217 216 216 216 213 210 208 207 205 206 212 216 216 214 211 209 209 215 224
312 298 295 285 272 268 263 257 271 300 298 288 268 226 193 194 211 196 96 81 52 21 11 8 17 31 42 42 38 39 36 28 21 18 12 10 14 15 334 194 188 197 204 209 223 230 215 220 237 227 203 194 200 207 204 199 193 187 188 200 215 233 243 233 224 223 221 220 220 220 219 220 220 215 211 210 210 209 210 212 211 210 211 213 216 220 225
319 301 291 282 274 271 277 305 337 346 348 350 323 197 182 194 221 178 122 105 53 21 4 350 355 8 22 36 33 18 8 1 356 350 350 348 340 341 39 157 171 194 213 223 242 251 252 272 270 228 204 203 208 210 210 207 202 197 194 199 214 233 242 233 225 222 220 220 222 219 214 214 216 212 207 209 212 212 209 208 209 210 211 214 217 220 223
313 307 300 285 289 332 356 52 38 28 36 46 44 120 162 187 208 132 114 97 36 21 14 4 3 2 356 351 348 342 341 350 351 334 333 338 335 345 32 109 127 320 289 257 264 264 265 276 263 203 196 207 217 216 217 217 208 200 198 204 215 224 225 218 211 208 207 209 211 207 203 205 210 211 208 209 213 215 213 212 214 215 215 215 216 217 218
316 333 331 310 287 357 19 49 68 50 61 77 75 71 93 136 130 116 109 77 19 10 8 11 18 17 11 2 344 332 346 14 9 334 339 69 38 4 62 84 13 344 327 300 302 283 257 254 225 196 198 211 221 220 222 219 207 197 197 211 219 214 205 198 198 200 202 205 205 204 205 207 208 210 213 215 216 214 213 213 217 220 220 218 217 218 219
313 327 327 319 305 238 150 117 108 96 74 60 63 78 90 99 107 109 92 53 36 31 24 22 29 33 31 26 17 8 15 27 11 346 16 76 90 72 56 25 355 351 359 100 104 182 218 220 210 203 205 210 215 222 222 211 200 195 199 215 223 220 212 207 209 212 216 219 221 220 219 217 215 215 222 227 225 217 212 212 216 220 221 222 224 226 227
331 304 316 331 332 321 185 129 98 100 90 65 50 66 91 100 99 89 66 53 50 47 39 36 39 39 31 21 13 6 9 13 5 10 39 67 74 36 352 345 355 20 95 127 124 149 199 206 214 221 217 212 216 228 228 209 202 205 211 222 233 235 224 219 223 229 232 234 237 237 233 231 228 227 231 237 237 230 224 222 224 225 226 227 226 224 221
17 358 326 333 332 329 55 94 53 65 81 76 65 57 58 70 73 65 60 63 62 57 53 52 48 33 16 8 4 358 360 7 17 32 37 35 29 13 353 345 356 85 146 155 157 181 223 238 249 251 250 244 238 238 233 212 206 206 206 213 232 243 215 207 216 226 224 222 229 237 240 239 237 236 239 245 246 241 235 231 228 224 220 218 216 217 221
49 52 56 31 9 15 48 58 44 49 62 71 73 60 46 52 77 81 74 80 82 81 81 73 52 33 24 23 20 16 22 37 49 56 43 21 17 21 21 16 26 139 162 168 183 243 258 264 260 256 261 255 224 185 157 169 187 187 186 198 210 216 204 201 209 216 214 211 217 227 235 239 239 241 249 253 245 235 230 228 224 219 216 218 222 227 233
66 72 75 73 70 68 65 63 61 56 50 48 43 30 27 44 76 83 70 57 64 98 108 92 66 47 43 43 37 36 47 56 57 56 51 34 22 20 24 32 60 119 137 112 24 9 35 89 104 112 116 139 145 141 138 158 186 186 191 204 207 205 209 215 216 220 222 219 217 221 226 232 235 237 242 244 233 222 220 225 226 223 222 226 231 234 238
55 73 84 87 88 86 79 70 60 50 46 48 45 35 29 40 62 68 62 51 37 42 76 87 72 58 55 55 51 50 51 54 55 52 44 35 28 27 29 36 56 91 93 61 37 35 65 92 94 96 106 123 131 130 128 165 190 184 188 207 206 206 218 226 222 220 221 220 218 220 224 228 233 234 236 238 233 225 224 231 236 233 227 228 232 238 244
53 55 62 72 78 80 78 74 67 60 60 67 65 58 50 44 41 51 59 59 60 66 68 57 52 59 66 69 69 62 47 39 44 51 47 42 36 29 24 27 45 72 75 59 47 47 63 82 88 97 116 127 125 113 101 166 177 175 189 212 215 222 233 234 232 229 226 223 226 230 229 227 230 235 239 241 238 233 234 241 246 240 232 230 232 236 241
65 67 66 66 68 68 67 69 74 82 92 95 91 80 65 49 38 47 72 71 76 82 69 47 35 43 68 79 84 82 65 49 43 44 41 36 27 16 16 31 62 78 79 68 47 43 52 61 63 73 107 122 115 92 66 170 165 168 194 204 211 237 248 243 243 240 233 226 229 238 235 228 226 231 239 243 241 239 242 247 244 236 232 230 228 226 229
65 70 72 73 74 74 73 73 74 78 83 89 94 93 82 64 48 44 61 79 94 99 83 60 38 17 36 79 94 99 87 73 65 58 55 56 49 36 38 51 65 65 64 65 44 28 37 48 51 54 76 104 108 91 347 240 213 216 216 208 215 237 244 245 246 243 234 230 232 239 244 240 232 226 229 235 238 237 238 238 235 232 232 232 231 231 234